When you browse on this site, cookies collect data to enhance your experience and personalize the content and advertising you see.
Visit our Privacy Policy to learn more. By continuing to use the site, you agree to this use of cookies and data.
  • en France
  • Liste des pays
  • À 7 jours
  • Température de l'eau
  • Carte satellitaire
  • Carte météo
  • Widgets météo
  • user-avatar
    Se connecter

    Météo par heure à Vljora

    Ce jour, 26 Avril, Vendredi

    Heure Température Précipitation Vent Pression Humidité
    00:00 +20°C° 0 mm 1 m/s 765 mmHg 84%
    01:00 +19°C° 0 mm 2 m/s 765 mmHg 83%
    02:00 +19°C° 0 mm 2 m/s 765 mmHg 81%
    03:00 +19°C° 0 mm 2 m/s 764 mmHg 79%
    04:00 +19°C° 0 mm 2 m/s 764 mmHg 77%
    05:00 +21°C° 0 mm 1 m/s 764 mmHg 74%
    06:00 +22°C° 0 mm 1 m/s 764 mmHg 71%
    07:00 +24°C° 0 mm 1 m/s 764 mmHg 68%
    08:00 +25°C° 0 mm 1 m/s 764 mmHg 63%
    09:00 +26°C° 0 mm 2 m/s 764 mmHg 58%
    10:00 +27°C° 0 mm 2 m/s 764 mmHg 54%
    11:00 +27°C° 0 mm 2 m/s 764 mmHg 55%
    12:00 +27°C° 0 mm 2 m/s 763 mmHg 55%
    13:00 +28°C° 0 mm 3 m/s 763 mmHg 56%
    14:00 +27°C° 0 mm 3 m/s 763 mmHg 57%
    15:00 +27°C° 0 mm 3 m/s 762 mmHg 59%
    16:00 +26°C° 0 mm 3 m/s 762 mmHg 61%
    17:00 +25°C° 0 mm 3 m/s 762 mmHg 65%
    18:00 +22°C° 0 mm 3 m/s 762 mmHg 69%
    19:00 +21°C° 0 mm 3 m/s 762 mmHg 73%
    20:00 +21°C° 0 mm 3 m/s 762 mmHg 71%
    21:00 +20°C° 0 mm 3 m/s 762 mmHg 70%
    22:00 +20°C° 0 mm 3 m/s 762 mmHg 68%
    23:00 +20°C° 0 mm 3 m/s 762 mmHg 66%

    Demain, 27 Avril, Samedi

    Heure Température Précipitation Vent Pression Humidité
    00:00 +20°C° 0 mm 3 m/s 762 mmHg 65%
    01:00 +19°C° 0 mm 3 m/s 762 mmHg 63%
    02:00 +19°C° 0 mm 3 m/s 761 mmHg 63%
    03:00 +19°C° 0 mm 3 m/s 761 mmHg 62%
    04:00 +19°C° 0 mm 3 m/s 761 mmHg 61%
    05:00 +19°C° 0 mm 2 m/s 761 mmHg 64%
    06:00 +19°C° 0 mm 2 m/s 761 mmHg 66%
    07:00 +21°C° 0 mm 1 m/s 761 mmHg 68%
    08:00 +21°C° 0 mm 2 m/s 761 mmHg 67%
    09:00 +22°C° 0 mm 3 m/s 761 mmHg 65%
    10:00 +23°C° 0 mm 4 m/s 761 mmHg 63%
    11:00 +23°C° 0 mm 4 m/s 761 mmHg 65%
    12:00 +23°C° 0 mm 4 m/s 761 mmHg 67%
    13:00 +23°C° 0 mm 5 m/s 761 mmHg 68%
    14:00 +23°C° 0.1 mm 5 m/s 761 mmHg 68%
    15:00 +22°C° 0.1 mm 5 m/s 760 mmHg 67%
    16:00 +21°C° 0.1 mm 5 m/s 760 mmHg 66%
    17:00 +20°C° 0 mm 5 m/s 760 mmHg 72%
    18:00 +17°C° 0 mm 5 m/s 761 mmHg 77%
    19:00 +17°C° 0 mm 4 m/s 761 mmHg 83%
    20:00 +17°C° 0 mm 4 m/s 761 mmHg 81%
    21:00 +15°C° 0 mm 4 m/s 762 mmHg 78%
    22:00 +15°C° 0 mm 4 m/s 762 mmHg 75%
    23:00 +14°C° 0 mm 4 m/s 762 mmHg 77%

    Après-demain, 28 Avril, Dimanche

    Heure Température Précipitation Vent Pression Humidité
    00:00 +14°C° 0 mm 4 m/s 762 mmHg 79%
    01:00 +14°C° 0 mm 5 m/s 762 mmHg 81%
    02:00 +13°C° 0 mm 5 m/s 762 mmHg 83%
    03:00 +13°C° 0 mm 5 m/s 762 mmHg 85%
    04:00 +13°C° 0 mm 5 m/s 762 mmHg 87%
    05:00 +14°C° 0 mm 5 m/s 762 mmHg 83%
    06:00 +15°C° 0 mm 5 m/s 762 mmHg 80%
    07:00 +16°C° 0 mm 5 m/s 762 mmHg 76%
    08:00 +17°C° 0 mm 5 m/s 762 mmHg 70%
    09:00 +19°C° 0 mm 5 m/s 762 mmHg 63%
    10:00 +20°C° 0 mm 5 m/s 762 mmHg 56%
    11:00 +20°C° 0 mm 5 m/s 762 mmHg 57%
    12:00 +21°C° 0 mm 5 m/s 761 mmHg 58%
    13:00 +21°C° 0 mm 6 m/s 761 mmHg 58%
    14:00 +21°C° 0 mm 5 m/s 761 mmHg 61%
    15:00 +20°C° 0 mm 5 m/s 760 mmHg 64%
    16:00 +20°C° 0 mm 5 m/s 760 mmHg 67%
    17:00 +18°C° 0 mm 4 m/s 760 mmHg 73%
    18:00 +17°C° 0 mm 3 m/s 760 mmHg 79%
    19:00 +15°C° 0 mm 2 m/s 760 mmHg 85%
    20:00 +15°C° 0 mm 2 m/s 760 mmHg 83%
    21:00 +15°C° 0 mm 1 m/s 761 mmHg 80%
    22:00 +14°C° 0 mm 1 m/s 761 mmHg 78%
    23:00 +14°C° 0 mm 1 m/s 761 mmHg 75%

    29 Avril, Lundi

    Heure Température Précipitation Vent Pression Humidité
    00:00 +14°C° 0 mm 1 m/s 761 mmHg 72%
    01:00 +14°C° 0 mm 1 m/s 760 mmHg 69%
    02:00 +14°C° 0 mm 2 m/s 760 mmHg 71%
    03:00 +13°C° 0 mm 2 m/s 760 mmHg 72%
    04:00 +12°C° 0 mm 3 m/s 760 mmHg 74%
    05:00 +13°C° 0 mm 3 m/s 760 mmHg 71%
    06:00 +16°C° 0 mm 3 m/s 760 mmHg 69%
    07:00 +17°C° 0 mm 4 m/s 760 mmHg 67%
    08:00 +18°C° 0 mm 4 m/s 761 mmHg 64%
    09:00 +19°C° 0 mm 4 m/s 761 mmHg 61%
    10:00 +20°C° 0 mm 5 m/s 761 mmHg 58%
    11:00 +20°C° 0 mm 5 m/s 760 mmHg 60%
    12:00 +21°C° 0 mm 5 m/s 760 mmHg 62%
    13:00 +21°C° 0 mm 5 m/s 760 mmHg 64%
    14:00 +21°C° 0 mm 5 m/s 760 mmHg 68%
    15:00 +20°C° 0 mm 5 m/s 760 mmHg 71%
    16:00 +20°C° 0 mm 4 m/s 759 mmHg 75%
    17:00 +19°C° 0 mm 4 m/s 760 mmHg 81%
    18:00 +18°C° 0 mm 3 m/s 760 mmHg 87%
    19:00 +17°C° 0 mm 2 m/s 760 mmHg 94%
    20:00 +16°C° 0 mm 2 m/s 760 mmHg 95%
    21:00 +15°C° 0 mm 2 m/s 761 mmHg 96%
    22:00 +15°C° 0 mm 2 m/s 761 mmHg 97%
    23:00 +15°C° 0 mm 2 m/s 761 mmHg 96%

    30 Avril, Mardi

    Heure Température Précipitation Vent Pression Humidité
    00:00 +15°C° 0 mm 2 m/s 761 mmHg 96%
    01:00 +14°C° 0 mm 1 m/s 760 mmHg 96%
    02:00 +14°C° 0 mm 1 m/s 760 mmHg 95%
    03:00 +15°C° 0 mm 1 m/s 760 mmHg 94%
    04:00 +15°C° 0 mm 1 m/s 760 mmHg 93%
    05:00 +15°C° 0 mm 1 m/s 760 mmHg 89%
    06:00 +16°C° 0 mm 1 m/s 760 mmHg 85%
    07:00 +16°C° 0 mm 1 m/s 760 mmHg 81%
    08:00 +17°C° 0 mm 2 m/s 761 mmHg 79%
    09:00 +18°C° 0 mm 3 m/s 761 mmHg 76%
    10:00 +20°C° 0 mm 5 m/s 761 mmHg 73%
    11:00 +20°C° 0 mm 5 m/s 760 mmHg 74%
    12:00 +20°C° 0 mm 5 m/s 760 mmHg 75%
    13:00 +20°C° 0 mm 5 m/s 760 mmHg 75%
    14:00 +20°C° 0 mm 5 m/s 760 mmHg 76%
    15:00 +19°C° 0 mm 5 m/s 759 mmHg 76%
    16:00 +19°C° 0 mm 5 m/s 759 mmHg 77%
    17:00 +17°C° 0 mm 5 m/s 759 mmHg 82%
    18:00 +16°C° 0 mm 5 m/s 759 mmHg 88%
    19:00 +14°C° 0 mm 5 m/s 759 mmHg 94%
    20:00 +14°C° 0 mm 4 m/s 760 mmHg 95%
    21:00 +13°C° 0 mm 4 m/s 760 mmHg 95%
    22:00 +13°C° 0 mm 4 m/s 760 mmHg 95%
    23:00 +13°C° 0 mm 4 m/s 760 mmHg 92%

    1 Mai, Mercredi

    Heure Température Précipitation Vent Pression Humidité
    00:00 +12°C° 0 mm 4 m/s 760 mmHg 89%
    01:00 +12°C° 0 mm 4 m/s 760 mmHg 86%
    02:00 +12°C° 0 mm 4 m/s 760 mmHg 83%
    03:00 +12°C° 0 mm 3 m/s 760 mmHg 79%
    04:00 +12°C° 0 mm 3 m/s 760 mmHg 75%
    05:00 +13°C° 0 mm 3 m/s 760 mmHg 72%
    06:00 +14°C° 0 mm 3 m/s 759 mmHg 69%
    07:00 +14°C° 0 mm 3 m/s 759 mmHg 66%
    08:00 +17°C° 0 mm 3 m/s 760 mmHg 63%
    09:00 +18°C° 0 mm 3 m/s 760 mmHg 60%
    10:00 +19°C° 0 mm 3 m/s 760 mmHg 57%
    11:00 +19°C° 0 mm 4 m/s 760 mmHg 62%
    12:00 +19°C° 0 mm 4 m/s 760 mmHg 67%
    13:00 +19°C° 0 mm 5 m/s 760 mmHg 72%
    14:00 +17°C° 0 mm 5 m/s 760 mmHg 76%
    15:00 +17°C° 0 mm 5 m/s 760 mmHg 79%
    16:00 +17°C° 0 mm 5 m/s 760 mmHg 83%
    17:00 +16°C° 0 mm 5 m/s 760 mmHg 87%
    18:00 +15°C° 0 mm 5 m/s 760 mmHg 91%
    19:00 +15°C° 0 mm 5 m/s 760 mmHg 95%
    20:00 +14°C° 0 mm 5 m/s 760 mmHg 95%
    21:00 +13°C° 0 mm 4 m/s 761 mmHg 95%
    22:00 +13°C° 0 mm 4 m/s 761 mmHg 95%
    23:00 +12°C° 0 mm 4 m/s 761 mmHg 91%
    Voir plus